Location: Unspecified
(51.0950°N, 12.9690°E)
Time: 11:54:51
(UTC+00:00)

ATLAS 3B R/B - Pass Details

Date: 23 May 2022
Orbit: 976 x 1218 km, 63.8° (Epoch: 20 June)

Event Time Altitude Azimuth Distance (km) Brightness Sun altitude
Rises 19:37:44 0° 308° (NW) 3,878 8.5 -5.1°
Reaches altitude 10° 19:40:33 10° 316° (NW) 2,957 6.9 -5.4°
Maximum altitude 19:47:08 40° 25° (NNE) 1,630 3.9 -6.1°
Drops below altitude 10° 19:54:04 10° 94° (E) 3,106 4.7 -6.9°
Enters shadow 19:56:53 - 101° (E) 4,029 5.2 -7.2°
